TimeCST,TemperatureF,Dew PointF,Humidity,Sea Level PressureIn,VisibilityMPH,Wind Direction,Wind SpeedMPH,Gust SpeedMPH,PrecipitationIn,Events,Conditions,WindDirDegrees,DateUTC
12:14 AM,24.8,21.2,86,30.37,10.0,North,17.3,-,N/A,,Overcast,350,2012-02-07 06:14:00
12:35 AM,24.8,21.2,86,30.39,10.0,North,17.3,-,N/A,,Overcast,350,2012-02-07 06:35:00
12:54 AM,24.8,21.2,86,30.39,10.0,North,17.3,-,N/A,,Overcast,350,2012-02-07 06:54:00
1:14 AM,24.8,19.4,80,30.40,10.0,NNW,17.3,-,N/A,,Overcast,340,2012-02-07 07:14:00
1:34 AM,23.0,19.4,86,30.40,10.0,NNW,17.3,-,N/A,,Overcast,340,2012-02-07 07:34:00
1:54 AM,23.0,19.4,86,30.41,10.0,North,18.4,24.2,N/A,,Overcast,350,2012-02-07 07:54:00
2:14 AM,21.2,17.6,86,30.42,10.0,NNW,16.1,24.2,N/A,,Overcast,340,2012-02-07 08:14:00
2:34 AM,21.2,17.6,86,30.43,10.0,NNW,19.6,23.0,N/A,,Overcast,340,2012-02-07 08:34:00
2:54 AM,21.2,17.6,86,30.44,10.0,NNW,17.3,-,N/A,,Overcast,340,2012-02-07 08:54:00
3:14 AM,21.2,15.8,80,30.44,10.0,NNW,18.4,23.0,N/A,,Overcast,340,2012-02-07 09:14:00
3:34 AM,19.4,15.8,86,30.44,10.0,NNW,17.3,21.9,N/A,,Overcast,340,2012-02-07 09:34:00
3:55 AM,19.4,15.8,86,30.45,10.0,NNW,20.7,24.2,N/A,,Overcast,340,2012-02-07 09:55:00
4:15 AM,19.4,15.8,86,30.46,10.0,North,16.1,-,N/A,,Overcast,350,2012-02-07 10:15:00
4:34 AM,17.6,14.0,86,30.47,10.0,North,17.3,-,N/A,,Overcast,350,2012-02-07 10:34:00
4:54 AM,17.6,14.0,86,30.48,10.0,North,16.1,20.7,N/A,,Overcast,350,2012-02-07 10:54:00
5:14 AM,17.6,12.2,79,30.49,10.0,North,17.3,-,N/A,,Mostly Cloudy,350,2012-02-07 11:14:00
5:34 AM,15.8,12.2,86,30.50,10.0,North,17.3,-,N/A,,Scattered Clouds,350,2012-02-07 11:34:00
5:54 AM,15.8,12.2,86,30.51,10.0,NNW,13.8,-,N/A,,Clear,340,2012-02-07 11:54:00
6:14 AM,14.0,10.4,86,30.52,10.0,North,15.0,-,N/A,,Clear,350,2012-02-07 12:14:00
6:35 AM,14.0,10.4,86,30.52,10.0,North,13.8,-,N/A,,Clear,350,2012-02-07 12:35:00
6:55 AM,12.2,10.4,92,30.53,10.0,NNW,11.5,-,N/A,,Clear,340,2012-02-07 12:55:00
7:14 AM,12.2,10.4,92,30.53,10.0,NNW,12.7,-,N/A,,Clear,340,2012-02-07 13:14:00
7:34 AM,12.2,8.6,85,30.54,10.0,North,12.7,-,N/A,,Clear,350,2012-02-07 13:34:00
7:54 AM,12.2,8.6,85,30.54,10.0,North,13.8,-,N/A,,Clear,350,2012-02-07 13:54:00
8:15 AM,12.2,10.4,92,30.56,10.0,North,15.0,-,N/A,,Clear,350,2012-02-07 14:15:00
8:34 AM,12.2,10.4,92,30.56,10.0,North,15.0,-,N/A,,Clear,350,2012-02-07 14:34:00
8:54 AM,14.0,10.4,86,30.57,10.0,North,13.8,-,N/A,,Clear,350,2012-02-07 14:54:00
9:15 AM,14.0,8.6,79,30.57,10.0,North,13.8,-,N/A,,Scattered Clouds,350,2012-02-07 15:15:00
9:35 AM,14.0,10.4,86,30.58,10.0,North,13.8,-,N/A,,Mostly Cloudy,350,2012-02-07 15:35:00
9:55 AM,15.8,10.4,79,30.59,10.0,North,12.7,-,N/A,,Overcast,360,2012-02-07 15:55:00
10:14 AM,15.8,10.4,79,30.59,10.0,North,12.7,18.4,N/A,,Scattered Clouds,360,2012-02-07 16:14:00
10:35 AM,15.8,10.4,79,30.59,10.0,North,13.8,-,N/A,,Clear,350,2012-02-07 16:35:00
10:54 AM,17.6,10.4,73,30.60,10.0,North,12.7,-,N/A,,Scattered Clouds,350,2012-02-07 16:54:00
11:15 AM,17.6,10.4,73,30.60,10.0,North,12.7,-,N/A,,Scattered Clouds,350,2012-02-07 17:15:00
11:35 AM,17.6,10.4,73,30.60,10.0,NNW,12.7,-,N/A,,Clear,340,2012-02-07 17:35:00
11:55 AM,17.6,10.4,73,30.59,10.0,North,12.7,-,N/A,,Clear,360,2012-02-07 17:55:00
12:15 PM,17.6,10.4,73,30.59,10.0,North,13.8,17.3,N/A,,Clear,350,2012-02-07 18:15:00
12:34 PM,19.4,10.4,68,30.58,10.0,North,10.4,16.1,N/A,,Clear,350,2012-02-07 18:34:00
12:55 PM,19.4,10.4,68,30.57,10.0,North,10.4,-,N/A,,Clear,350,2012-02-07 18:55:00
1:14 PM,23.0,10.4,59,30.56,10.0,North,13.8,-,N/A,,Clear,360,2012-02-07 19:14:00
1:35 PM,24.8,10.4,54,30.55,10.0,North,12.7,-,N/A,,Clear,360,2012-02-07 19:35:00
1:55 PM,24.8,8.6,50,30.54,10.0,North,12.7,-,N/A,,Clear,10,2012-02-07 19:55:00
2:14 PM,24.8,8.6,50,30.54,10.0,North,13.8,18.4,N/A,,Clear,360,2012-02-07 20:14:00
2:34 PM,24.8,8.6,50,30.54,10.0,North,15.0,19.6,N/A,,Clear,350,2012-02-07 20:34:00
2:54 PM,24.8,6.8,46,30.54,10.0,North,13.8,-,N/A,,Clear,350,2012-02-07 20:54:00
3:14 PM,23.0,8.6,54,30.55,10.0,NNW,11.5,17.3,N/A,,Clear,340,2012-02-07 21:14:00
3:35 PM,24.8,6.8,46,30.54,10.0,North,11.5,-,N/A,,Clear,350,2012-02-07 21:35:00
3:55 PM,24.8,6.8,46,30.54,10.0,NNW,10.4,-,N/A,,Clear,340,2012-02-07 21:55:00
4:15 PM,24.8,6.8,46,30.54,10.0,NNW,10.4,-,N/A,,Clear,340,2012-02-07 22:15:00
4:35 PM,24.8,5.0,43,30.54,10.0,North,9.2,-,N/A,,Clear,350,2012-02-07 22:35:00
4:55 PM,23.0,6.8,50,30.53,10.0,NNW,11.5,-,N/A,,Clear,340,2012-02-07 22:55:00
5:15 PM,21.2,6.8,54,30.53,10.0,NNW,9.2,-,N/A,,Clear,340,2012-02-07 23:15:00
5:35 PM,19.4,6.8,58,30.53,10.0,NNW,8.1,-,N/A,,Clear,340,2012-02-07 23:35:00
5:55 PM,17.6,6.8,63,30.54,10.0,NNW,8.1,-,N/A,,Clear,340,2012-02-07 23:55:00
6:15 PM,17.6,6.8,63,30.54,10.0,NNW,6.9,-,N/A,,Clear,330,2012-02-08 00:15:00
6:35 PM,15.8,6.8,68,30.54,10.0,NW,8.1,-,N/A,,Clear,310,2012-02-08 00:35:00
6:55 PM,14.0,6.8,73,30.54,10.0,NW,6.9,-,N/A,,Clear,320,2012-02-08 00:55:00
7:14 PM,12.2,6.8,79,30.54,10.0,NW,6.9,-,N/A,,Clear,310,2012-02-08 01:14:00
7:35 PM,12.2,6.8,79,30.54,10.0,NW,8.1,-,N/A,,Clear,320,2012-02-08 01:35:00
7:54 PM,12.2,6.8,79,30.54,10.0,NW,6.9,-,N/A,,Clear,310,2012-02-08 01:54:00
8:14 PM,12.2,6.8,79,30.54,10.0,NW,6.9,-,N/A,,Clear,310,2012-02-08 02:14:00
8:35 PM,12.2,6.8,79,30.54,10.0,NW,8.1,-,N/A,,Clear,320,2012-02-08 02:35:00
8:55 PM,10.4,6.8,85,30.55,10.0,NW,6.9,-,N/A,,Clear,310,2012-02-08 02:55:00
9:15 PM,10.4,6.8,85,30.55,10.0,NW,8.1,-,N/A,,Clear,320,2012-02-08 03:15:00
9:34 PM,10.4,5.0,79,30.54,10.0,NW,8.1,-,N/A,,Clear,320,2012-02-08 03:34:00
9:54 PM,8.6,5.0,85,30.55,10.0,West,3.5,-,N/A,,Clear,280,2012-02-08 03:54:00
10:15 PM,5.0,1.4,85,30.55,10.0,WNW,5.8,-,N/A,,Clear,290,2012-02-08 04:15:00
10:35 PM,3.2,-0.4,85,30.54,10.0,West,4.6,-,N/A,,Clear,280,2012-02-08 04:35:00
10:55 PM,3.2,1.4,92,30.54,10.0,WNW,6.9,-,N/A,,Clear,290,2012-02-08 04:55:00
11:15 PM,5.0,1.4,85,30.54,10.0,West,5.8,-,N/A,,Clear,280,2012-02-08 05:15:00
11:55 PM,3.2,-0.4,85,30.54,10.0,West,4.6,-,N/A,,Clear,280,2012-02-08 05:55:00